Regional Weather Roundup
Issued by NWS Little Rock, AR

Home | Current Version | Previous Version | Graphics & Text | Print | Product List | Glossary On
Versions: 1 2 3 4 5 6 7 8 9 10 11 12 13 14 15 16 17 18 19 20 21 22 23 24 25 26 27 28 29 30 31 32 33 34 35 36 37 38 39 40 41 42 43 44 45 46 47 48 49 50
000
ASUS44 KLZK 241405
RWRLZK

WEATHER ROUNDUP FOR ARKANSAS
NATIONAL WEATHER SERVICE LITTLE ROCK AR
900 AM CDT WED MAY 24 2017

NOTE: "FAIR" INDICATES FEW OR NO CLOUDS BELOW 12,000 FEET WITH NO
SIGNIFICANT WEATHER AND/OR OBSTRUCTIONS TO VISIBILITY.

ARZ001-003-010-029-241500-
NORTHWEST ARKANSAS

CITY           SKY/WX    TMP DP  RH WIND       PRES   REMARKS
FAYETTEVILLE   PTSUNNY   53  49  86 N9        29.74S
FORT SMITH     MOSUNNY   59  47  64 NW12      29.75S
HARRISON       CLOUDY    56  50  80 NW12      29.69S
BENTONVILLE    CLOUDY    54  46  76 N9        29.74S
ROGERS         CLOUDY    53  47  79 NW8       29.74S
SILOAM SPGS    CLOUDY    55  45  67 N12       29.75R
HIGHFILL       PTSUNNY   56  48  74 N13       29.74S
SPRINGDALE     PTSUNNY   54  48  82 NW9       29.75S
$$

ARZ004-005-016-241500-
NORTH CENTRAL ARKANSAS

CITY           SKY/WX    TMP DP  RH WIND       PRES   REMARKS
BATESVILLE     CLOUDY    57  52  82 W7        29.66R
FLIPPIN        PTSUNNY   57  46  67 W9        29.65S
MTN HOME       PTSUNNY   56  51  84 N7        29.66F
$$

ARZ040-041-241500-
WEST CENTRAL ARKANSAS

CITY           SKY/WX    TMP DP  RH WIND       PRES   REMARKS
MENA           MOSUNNY   61  50  67 W9G16     29.74S
MOUNT IDA      MOSUNNY   60  48  64 NW9       29.70R
$$

ARZ009-017-025-026-028-241500-
NORTHEAST ARKANSAS

CITY           SKY/WX    TMP DP  RH WIND       PRES   REMARKS
JONESBORO      SUNNY     62  55  77 NW7       29.60S
WALNUT RIDGE   SUNNY     61  50  67 NW14      29.61S
BLYTHEVILLE    PTSUNNY   62  60  93 NW10      29.58R
NW BLYTHEVILLE PTSUNNY   61  55  82 NW10      29.58R
$$

ARZ022-023-033-042-044-241500-
CENTRAL ARKANSAS

CITY           SKY/WX    TMP DP  RH WIND       PRES   REMARKS
LITTLE ROCK    MOSUNNY   60  53  77 NW15G23   29.66S
N LITTLE ROCK    N/A     59  54  84 NW8G16    29.66S
JACKSONVILLE   SUNNY     62  54  76 W8        29.65S
CONWAY           N/A     61  52  72 NW10      29.67R
SEARCY         MOSUNNY   62  53  72 NW13G20   29.66S
HOT SPRINGS    SUNNY     61  50  67 NW12G18   29.69S
RUSSELLVILLE   MOSUNNY   60  50  69 NW9       29.69S
CLINTON        FAIR      59  52  77 NW9G16    29.67S
$$

ARZ036-241500-
EAST ARKANSAS

CITY           SKY/WX    TMP DP  RH WIND       PRES   REMARKS
WEST MEMPHIS   CLOUDY    63  59  87 VRB6      29.58S
$$

ARZ050-053-066-070-073-241500-
SOUTHWEST ARKANSAS

CITY           SKY/WX    TMP DP  RH WIND       PRES   REMARKS
ARKADELPHIA    FAIR      61  53  75 NW8       29.71S
CAMDEN         SUNNY     63  52  67 W8        29.70S
TEXARKANA      SUNNY     59  51  75 NW13G22   29.76R
EL DORADO      SUNNY     61  54  77 W7        29.72S
DE QUEEN       SUNNY     60  51  72 W6        29.74S
$$

ARZ056-057-069-241500-
SOUTHEAST ARKANSAS

CITY           SKY/WX    TMP DP  RH WIND       PRES   REMARKS
PINE BLUFF     MOSUNNY   61  53  75 NW15      29.66S
STUTTGART      PTSUNNY   63  46  55 NW14      29.65S
MONTICELLO     MOSUNNY   62  55  77 W10       29.66S

$$





USA.gov is the U.S. government's official web portal to all federal, state and local government web resources and services.